Hourly Data Report for October 11, 2013

All times are specified in Local Standard Time (LST). Add 1 hour to adjust for Daylight Saving Time where and when it is observed.

CHARLOTTETOWN A
PRINCE EDWARD ISLAND

46°17'21.000" N
63°07'09.000" W
48.50 m
8300301
71706
YYG

Download Data

Hourly Data (October 2013)
Hourly Data Report for October 11, 2013
Temp Definition
°C
Dew Point Temp Definition
°C
Rel Hum Definition
%
Wind Dir Definition
10's deg

Wind Spd Definition
km/h
Visibility Definition
km
Stn Press Definition
kPa
Hmdx Definition


Wind Chill Definition


Weather Definition


TIME
00:00 Legend Double Dagger 10.9 9.3 90 23 8 24.1 101.46     LegendNANA
01:00 Legend Double Dagger 10.8 8.9 88 26 6 24.1 101.44     LegendNANA
02:00 Legend Double Dagger 10.2 8.3 88 28 6 24.1 101.44     Mainly Clear
03:00 Legend Double Dagger 8.0 7.4 96 31 4 24.1 101.44     LegendNANA
04:00 Legend Double Dagger 7.6 5.9 89 33 3 24.1 101.46     LegendNANA
05:00 Legend Double Dagger 7.2 6.5 95 22 3 24.1 101.47     Mainly Clear
06:00 Legend Double Dagger 8.6 8.2 97 22 6 24.1 101.52     Fog
07:00 Legend Double Dagger 8.0 7.7 98 29 2 24.1 101.54     LegendNANA
08:00 Legend Double Dagger 11.4 9.5 88 25 5 24.1 101.55     Mainly Clear
09:00 Legend Double Dagger 13.6 11.0 84 34 9 24.1 101.57     LegendNANA
10:00 Legend Double Dagger 14.0 11.5 85 1 13 24.1 101.59     LegendNANA
11:00 Legend Double Dagger 14.4 11.6 83 2 17 24.1 101.57     Mostly Cloudy
12:00 Legend Double Dagger 14.8 11.0 78 1 17 24.1 101.55     LegendNANA
13:00 Legend Double Dagger 14.4 11.6 83 2 23 24.1 101.53     LegendNANA
14:00 Legend Double Dagger 12.6 10.5 87 3 23 24.1 101.56     Cloudy
15:00 Legend Double Dagger 12.8 10.0 83 2 23 24.1 101.59     LegendNANA
16:00 Legend Double Dagger 11.4 8.6 83 4 26 24.1 101.64     LegendNANA
17:00 Legend Double Dagger 10.5 6.9 78 3 23 24.1 101.70     Mostly Cloudy
18:00 Legend Double Dagger 9.5 6.2 80 4 15 24.1 101.76     LegendNANA
19:00 Legend Double Dagger 8.8 6.3 84 4 13 24.1 101.81     LegendNANA
20:00 Legend Double Dagger 7.8 5.8 87 2 14 24.1 101.84     Mainly Clear
21:00 Legend Double Dagger 7.2 4.9 85 2 12 24.1 101.90     LegendNANA
22:00 Legend Double Dagger 5.7 4.0 89 2 12 24.1 101.91     LegendNANA
23:00 Legend Double Dagger 7.3 5.0 85 3 13 24.1 101.93     Mostly Cloudy

Notes on Data Quality.

Legend

  • E = Estimated
  • M = Missing
  • NA = Not Available
  • ‡ = Partner data that is not subject to review by the National Climate Archives
Date modified: